Regional Weather Roundup
Issued by NWS

Home | Current Version | Previous Version | Graphics & Text | Print | Product List | Glossary Off
Versions: 1 2 3 4 5 6 7 8 9 10 11 12 13 14 15 16 17 18 19 20 21 22 23 24 25 26 27 28 29 30 31 32 33 34 35 36 37 38 39 40 41 42 43 44 45 46 47 48 49 50

000
ASUS45 KBOU 250507
RWRCO

WEATHER ROUNDUP FOR COLORADO
NATIONAL WEATHER SERVICE DENVER/BOULDER CO
1100 PM MDT MON APR 24 2017

NOTE: "FAIR" INDICATES FEW OR NO CLOUDS BELOW 12000 FEET WITH NO
SIGNIFICANT WEATHER AND/OR OBSTRUCTIONS TO VISIBILITY.

COZ001>005-013-030-031-250600-
...NORTHWEST COLORADO...

CITY           SKY/WX    TMP DP  RH WIND       PRES   REMARKS
CRAIG          LGT RAIN  38  35  89 SW7       29.73R FOG
HAYDEN         CLOUDY    34  28  80 S3        29.73S
MEEKER         CLOUDY    39  35  86 W5        29.71F
MOUNT WERNER   NOT AVBL
STEAMBOAT SPGS CLOUDY    32  32  99 CALM      29.72R VSB 3/4
WALDEN           N/A     32  30  93 SE6       29.70F WCI  26
$$

COZ006>008-011-250600-
...WEST CENTRAL VALLEYS...

CITY           SKY/WX    TMP DP  RH WIND       PRES   REMARKS
GRAND JUNCTION LGT RAIN  48  39  71 NW17G30   29.70R
MONTROSE       CLOUDY    56  29  35 NW15G24   29.64R
EAGLE          RAIN      40  35  83 NW17G29   29.71R
RIFLE          CLOUDY    45  35  68 NW10G20   29.71R
DELTA          CLOUDY    60  32  35 W17G30    29.61R
NUCLA          CLOUDY    55  28  35 NW14G21   29.69R
$$

COZ017>023-064>068-250600-
...SOUTHWEST COLORADO...

CITY           SKY/WX    TMP DP  RH WIND       PRES   REMARKS
DURANGO        CLOUDY    48  30  49 CALM      29.72F
CORTEZ         CLOUDY    47  34  60 VRB6      29.69S
PAGOSA SPRINGS CLOUDY    45  32  59 NE6       29.77F
TELLURIDE      FAIR      47  19  32 SW16G26   29.79F
WOLF CREEK PAS SNOW      27  27 100 S24G33    29.90F VSB 1/2 WCI  12
$$

COZ009-010-012-014-032>034-037-058>063-250600-
...CENTRAL COLORADO...

CITY           SKY/WX    TMP DP  RH WIND       PRES   REMARKS
ASPEN          CLOUDY    42  34  73 N5        29.68R
BUENA VISTA    FAIR      41  27  56 SW3       29.65F
COPPER MTN     LGT SNOW  34  27  75 SW9G16    29.77F WCI  26
BERTHOUD PASS  FLURRIES  25  14  63 W18G26    29.77F WCI  11
COTTONWOOD PAS MOCLDY    41  27  56 CALM      29.71F
GUNNISON       FAIR      46  28  49 E6        29.66F
KREMMLING      LGT SNOW  37  34  87 N5        29.71S
LEADVILLE      CLOUDY    35  24  64 S7        29.70F WCI  29
MONARCH PASS     N/A     28  27  93 SW29G41   29.90F WCI  13
SALIDA         FAIR      46  29  52 CALM      29.73F
SUNLIGHT       HVY SNOW  25  25 100 W13G25    29.80S VSB 1/4 WCI  13
WILKERSON PASS FAIR      32  21  64 SW16G28   29.76F WCI  21
$$

COZ069>075-250600-
...SAN LUIS VALLEY/SANGRE DE CRISTO MOUNTAINS...

CITY           SKY/WX    TMP DP  RH WIND       PRES   REMARKS
ALAMOSA        FAIR      47  28  47 SW12      29.71F
LA VETA PASS   CLOUDY    36  27  69 SW16G29   29.92F
SAGUACHE       FAIR      39  28  65 SE5       29.72F
$$

COZ035-036-038>040-250600-
...NORTHERN COLORADO FRONT RANGE...

CITY           SKY/WX    TMP DP  RH WIND       PRES   REMARKS
DENVER INTL AP MOCLDY    47  38  71 E10       29.54F
DMNS CITY PARK   N/A     49  36  61 N6        29.56F
AURORA         MOCLDY    45  38  76 CALM      29.56F
FRONT RANGE AP NOT AVBL
ERIE MUNI ARPT FAIR      45  40  82 CALM      29.56F
BOULDER MUN AP FAIR      46  41  81 CALM      29.56F
CENTENNIAL     FAIR      48  37  65 NW3       29.57F
BROOMFIELD     NOT AVBL
FORT COLLINS   FAIR      48  43  82 N7        29.60R
LONGMONT       MOCLDY    51  41  69 CALM      29.58F
$$

COZ041-046-047-076>085-087-088-250600-
...PIKES PEAK/PALMER DIVIDE AND SOUTHERN FOOTHILLS...

CITY           SKY/WX    TMP DP  RH WIND       PRES   REMARKS
COLO. SPRINGS  MOCLDY    53  36  52 NE12      29.57F
A. F. ACADEMY  FAIR      50  28  41 N7        29.57F
SCHRIEVER AFB  MOCLDY    50  37  61 NW14      29.57F
ELLICOTT       FAIR     N/A N/A N/A E10       29.55F
FALCON         FAIR      48  34  58 NW6       29.61F
FORT CARSON    FAIR      53  36  54 N6        29.56F
LIMON          FAIR      51  38  60 N13       29.56R
MONUMENT HILL  FAIR      43  32  65 CALM      29.63F
TRINIDAD       FAIR      53  26  35 S6        29.59S
$$

COZ042>045-048>051-090-091-250600-
...NORTHEAST COLORADO...

CITY           SKY/WX    TMP DP  RH WIND       PRES   REMARKS
GREELEY ARPT   MOCLDY    47  41  80 NE3       29.57S
AKRON          MOCLDY    47  42  83 E10       29.53F
BURLINGTON     NOT AVBL
WRAY           NOT AVBL
STERLING       FAIR      48  43  81 E6        29.53F
HOLYOKE        HVY RAIN  54  46  76 NE8       29.59R
FORT MORGAN    TSTM      47  40  77 E14       29.53F
$$

COZ086-089-092>099-250600-
...SOUTHEAST COLORADO...

CITY           SKY/WX    TMP DP  RH WIND       PRES   REMARKS
PUEBLO         FAIR      57  37  47 NW8       29.50F
LA JUNTA       FAIR      66  29  24 SW17      29.46F
LAMAR          FAIR      66  37  34 S9G18     29.44F
SPRINGFIELD      N/A     57  40  52 W6        29.50R
$$



USA.gov is the U.S. government's official web portal to all federal, state and local government web resources and services.